sat.trackr.live / text

‹ back to catalog

UNKNOWN

NORAD 87456

UNKNOWN UNKNOWN UNKNOWN

§ Identity

Operator
Country
Launch date
Launch site
Launch vehicle
Mass (kg)
RCS (m²)

External: N2YO · Heavens-Above

§ Orbital elements

Epoch: 2026-05-23T22:23:58.964640Z

Period
101.69 min
Inclination
65.7701°
Eccentricity
0.0510851
Mean motion
14.16028377 rev/d
Perigee alt
470.1 km
Apogee alt
1,207.5 km
Semi-major
7,217.0 km
B*
2.5327e-4
RAAN
19.2811°
Arg perigee
282.3669°
Mean anomaly
72.0704°
Rev number
63,444

§ Raw data

UNKNOWN1 87456U          26143.93332135  .00001705  00000+0  25327-3 0  99992 87456  65.7701  19.2811 0510851 282.3669  72.0704 14.16028377634446

JSON: /api/v1/satellites/87456 · /tle

For live sub-satellite position, see the globe view (requires WebGL).

§ Visibility from observer

Set your observer location to see the next 7 days of passes ≥ 10°. The values pass through the URL so the page stays shareable.

No JS? Fill the form by hand. The geolocation button needs JavaScript.